Terug naar catalogus

STARLINK-34025

ActiefCommunicatieVLEO
NORAD 63824·PAYLOAD·🇺🇸 United States

Gelanceerd May 4, 2025 vanaf Cape Canaveral Space Force Station

Loading…

Volgende Passages (komende 24 uur)

TLE

VersSource: CelesTrak SupGP

Epoch: Sep 15, 2026, 03:21 UTC

1 63824C 25092W   26258.14006944 -.00019953  00000+0 -72278-3 0  2587
2 63824  42.9997 182.2691 0001203 278.0589  49.9917 15.27584055    11

Volg STARLINK-34025 in realtime met AllMySat

Download on the App Store